Tracking 19638 objects as of 20-Apr-2019
HD Live streaming from Space Station
objects crossing your sky now

DELTA 1 DEB (YO)

Track DELTA 1 DEB (YO) now!
10-day predictions


NORAD ID: 312
Int'l Code: 1962-025C
Perigee: 565.2 km
Apogee: 872.0 km
Inclination: 58.2 °
Period: 99.0 minutes
Semi major axis: 7089 km
RCS: 0.0456 m2 (small)
Launch date: June 19, 1962
Source: United States (US)
Launch site: AIR FORCE EASTERN TEST RANGE (AFETR)

Note: This is SATELLITE DEBRIS
aabbcc
Your satellite tracking list
Your tracking list is empty




NASA's NSSDC Master Catalog

Two Line Element Set (TLE):
1   312U 62025C   19108.52361191 -.00000076 +00000-0 +23572-4 0  9995
2   312 058.2468 181.4721 0216410 071.3799 291.0595 14.54350090977673
Source of the keplerian elements: AFSPC